Strona główna
METAR-TAF:

METAR-TAF

Lotnisko :

Platforma wiertnicza

Goeree Le, Holandia

Szerokość geograficzna: 51-55-33N, Długość geograficzna: 3-40-12E, wysokość: 19 m

Aktualna obserwacja pogody

Raport powstał 31 minut temu, godzina 17:25 UTC
Wiatr 3 kt od północny zachód
Temperatura 19°C
Wilgotność 60%
Ciśnienie 1026 hPa
Widzialność 10 km lub więcej

METAR: EHSC 211725Z AUTO 31003KT 9999 ///////// 19/11 Q1026 W20/H4

czas: 19:56 (17:56 UTC)


TAF: brakujący

Obserwacja i prognoza pogody dla ponad 4000 lotnisk (raport METAR i TAF).

Dostępne stacje oznaczono żółtymi i czerwonymi punktami na mapie.

Najedź kursorem aby zobaczyć nazwę stacji.

Kliknij aby zobaczyć obserwacje i prognozy pogody.

Aby zmienić mapę: kliknij na zielony przycisk z czarnym krzyżykiem, aby powiększyć; na zielony przycisk z myślnikiem, aby pomniejszyć; na zielone strzałki, aby przejść do map sąsiednich.


METAR-TAF: